Location: Maiden
(35.5760°N, 81.2120°W)
Time: 01:58:00
(UTC-04:00)

Vanguard 2 - Pass Details

Date: 09 August 2020
Orbit: 553 x 2937 km, 32.9° (Epoch: 20 September)

Event Time Altitude Azimuth Distance (km) Brightness Sun altitude
Rises 21:43:22 0° 241° (WSW) 6,783 12.7 -16.0°
Reaches altitude 10° 21:48:01 10° 239° (WSW) 5,743 12.3 -16.8°
Maximum altitude 22:05:06 65° 162° (SSE) 2,614 9.9 -19.6°
Enters shadow 22:15:44 15° 86° (E) 3,842 10.7 -21.3°
Drops below altitude 10° 22:16:52 10° 85° (E) 4,119 - -21.5°
Sets 22:19:38 0° 82° (E) 4,836 - -21.9°
